KG4WIV Weather Reports


time (UTC)temp
F
wind
direction
speed
knots
gust
knots
rain 1hr
in
rain 24hr
in
rain mn
in
humidity
%
barometer
mb
20260505111522 46 257 0.0 0.0 0.00 0.00 0.00 94 1014.9
20260505101525 47 257 0.0 0.0 0.00 0.00 0.00 93 1014.7
20260505100025 47 257 0.0 0.0 0.00 0.00 0.00 93 1014.8
20260505093020 47 257 0.0 0.0 0.00 0.00 0.00 92 1014.8
20260505091519 47 257 0.0 0.0 0.00 0.00 0.00 92 1014.7
20260505090016 48 257 0.0 0.0 0.00 0.00 0.00 92 1015.1
20260505083011 48 257 0.0 0.9 0.00 0.00 0.00 92 1015.0
20260505081516 48 257 0.0 0.0 0.00 0.00 0.00 91 1015.0
20260505080009 48 257 0.0 0.9 0.00 0.00 0.00 91 1015.0
20260505073012 49 257 0.0 0.0 0.00 0.00 0.00 91 1015.1
20260505071511 49 257 0.0 0.0 0.00 0.00 0.00 90 1015.1
20260505070010 49 257 0.0 0.0 0.00 0.00 0.00 90 1015.1
20260505063011 50 257 0.0 0.0 0.00 0.00 0.00 89 1015.0
20260505061517 50 257 0.0 0.0 0.00 0.00 0.00 88 1015.2
20260505060010 51 257 0.0 0.0 0.00 0.00 0.00 88 1015.2
20260505053006 52 257 0.0 0.0 0.00 0.00 0.00 86 1015.4
20260505051503 52 257 0.0 0.0 0.00 0.00 0.00 85 1015.3
20260505040047 55 257 0.0 0.0 0.00 0.00 0.00 81 1015.1
20260505040012 55 257 0.0 0.0 0.00 0.00 0.00 80 1015.1
20260505033008 56 257 0.0 0.0 0.00 0.00 0.00 77 1015.2
20260505031512 57 257 0.0 0.0 0.00 0.00 0.00 76 1015.2
20260505030043 58 257 0.0 0.0 0.00 0.00 0.00 74 1015.2
20260505024543 59 257 0.0 0.0 0.00 0.00 0.00 72 1015.3
20260505023102 60 257 0.0 0.0 0.00 0.00 0.00 68 1015.1
20260505023011 60 257 0.0 0.0 0.00 0.00 0.00 68 1015.1
20260505021600 61 257 0.0 0.9 0.00 0.00 0.00 66 1014.9
20260505020100 63 257 0.0 0.0 0.00 0.00 0.00 62 1014.8
20260505014557 64 257 0.0 0.0 0.00 0.00 0.00 60 1014.6
20260505013003 65 257 0.0 0.0 0.00 0.00 0.00 57 1014.6
20260505011503 67 257 0.0 0.0 0.00 0.00 0.00 52 1014.6
20260505010005 69 257 0.0 0.0 0.00 0.00 0.00 48 1014.5
20260505004503 70 257 0.0 0.0 0.00 0.00 0.00 44 1014.3
20260505003057 71 257 0.0 0.0 0.00 0.00 0.00 42 1014.3
20260505001620 72 257 0.0 0.0 0.00 0.00 0.00 40 1014.2
20260505000108 73 262 0.0 0.9 0.00 0.00 0.00 43 1014.2
20260504234558 73 262 0.0 0.9 0.00 0.00 0.00 40 1014.1
20260504233111 74 200 0.0 2.6 0.00 0.00 0.00 39 1014.1
20260504231559 75 239 0.0 1.7 0.00 0.00 0.00 39 1014.0
20260504230059 75 216 0.9 3.5 0.00 0.00 0.00 38 1014.0
20260504224558 76 265 0.0 1.7 0.00 0.00 0.00 39 1014.0
20260504223059 76 242 0.9 3.5 0.00 0.00 0.00 37 1014.0
20260504221558 76 193 0.9 2.6 0.00 0.00 0.00 38 1014.0
20260504220057 77 216 0.0 2.6 0.00 0.00 0.00 39 1014.1
20260504214606 77 241 0.0 1.7 0.00 0.00 0.00 39 1014.0
20260504213056 77 202 0.9 2.6 0.00 0.00 0.00 36 1014.0
20260504211554 77 192 0.9 2.6 0.00 0.00 0.00 36 1014.0
20260504210052 76 238 0.0 1.7 0.00 0.00 0.00 39 1014.1
20260504204553 76 256 0.9 2.6 0.00 0.00 0.00 41 1014.3
20260504203057 76 271 0.0 1.7 0.00 0.00 0.00 41 1014.3
20260504201551 76 11 0.0 1.7 0.00 0.00 0.00 41 1014.5
20260504200049 76 22 0.0 2.6 0.00 0.00 0.00 41 1014.7
20260504194553 76 183 0.0 1.7 0.00 0.00 0.00 38 1015.0
20260504193040 75 244 0.9 2.6 0.00 0.00 0.00 42 1015.1
20260504191536 75 259 0.0 2.6 0.00 0.00 0.00 44 1015.3
20260504190034 74 286 0.0 3.5 0.00 0.00 0.00 44 1015.7
20260504184530 73 259 0.0 0.9 0.00 0.00 0.00 46 1015.8
20260504183029 73 30 0.9 2.6 0.00 0.00 0.00 44 1016.0
20260504181527 73 24 0.0 2.6 0.00 0.00 0.00 45 1016.2
20260504180024 72 360 0.0 2.6 0.00 0.00 0.00 46 1016.5
20260504174521 72 13 0.9 2.6 0.00 0.00 0.00 47 1016.8
20260504173021 71 19 0.0 3.5 0.00 0.00 0.00 49 1016.9
20260504171522 70 32 0.0 3.5 0.00 0.00 0.00 48 1017.2